Regional Weather Roundup
Issued by NWS

Home | Current Version | Previous Version | Text Only | Print | Product List | Glossary On
Versions: 1 2 3 4 5 6 7 8 9 10 11 12 13 14 15 16 17 18 19 20 21 22 23 24 25 26 27 28 29 30 31 32 33 34 35 36 37 38 39 40 41 42 43 44 45 46 47 48 49 50
000
ASUS43 KLSX 261807
RWRMO

WEATHER SUMMARY FOR MISSOURI
NATIONAL WEATHER SERVICE SPRINGFIELD MO
100 PM CDT FRI AUG 26 2016

NOTE: "FAIR" INDICATES FEW OR NO CLOUDS BELOW 12,000 FEET WITH NO
       SIGNIFICANT WEATHER AND/OR OBSTRUCTIONS TO VISIBILITY.
       CURRENT SKY AND/OR WEATHER CONDITIONS ARE NOT AVAILABLE FOR
       CHILLICOTHE AND FARMINGTON.

MOZ001>031-035>038-043-044-053-054-261900-
...NORTHERN AND WESTERN MISSOURI...

CITY           SKY/WX    TMP DP  RH WIND       PRES   REMARKS
KANSAS CTY INT CLOUDY    80  68  66 SE7       30.08F
6HR MIN TEMP:  68; 6HR MAX TEMP:  80;

KANSAS C DTWN  PTSUNNY   82  69  64 E10       30.06F
6HR MIN TEMP:  70; 6HR MAX TEMP:  82;

LEE`S SUMMIT   MOSUNNY   79  69  71 SE9       30.08F
6HR MIN TEMP:  69; 6HR MAX TEMP:  80;

ST JOSEPH      PTSUNNY   76  68  76 SE7       30.09S
6HR MIN TEMP:  66; 6HR MAX TEMP:  76; 6HR PCP:  0.02;

CHILLICOTHE      N/A     78  70  76 SE8       30.09F
6HR MIN TEMP:  68; 6HR MAX TEMP:  78;

KIRKSVILLE     CLOUDY    76  67  73 E7        30.12F
6HR MIN TEMP:  67; 6HR MAX TEMP:  76;


$$
MOZ066>068-077>081-088>096-101>105-261900-
...SOUTHWEST MISSOURI...

CITY           SKY/WX    TMP DP  RH WIND       PRES   REMARKS
SPRINGFIELD    CLOUDY    79  70  74 S5        30.11F
6HR MIN TEMP:  72; 6HR MAX TEMP:  79; 6HR PCP: TRACE;

JOPLIN         MOSUNNY   82  73  74 SE8       30.08F
6HR MIN TEMP:  69; 6HR MAX TEMP:  82; 6HR PCP: TRACE;

BRANSON        PTSUNNY   81  70  69 CALM      30.14F

$$
MOZ032>034-039>042-045>050-055>058-069>072-261900-
...CENTRAL MISSOURI...

CITY           SKY/WX    TMP DP  RH WIND       PRES   REMARKS
COLUMBIA       MOSUNNY   79  73  82 NE3       30.10F
6HR MIN TEMP:  71; 6HR MAX TEMP:  79;

JEFFERSON CITY CLOUDY    81  72  74 CALM      30.09F
6HR MIN TEMP:  72; 6HR MAX TEMP:  82;

ROLLA          CLOUDY    80  71  74 S3        30.10F
6HR MIN TEMP:  70; 6HR MAX TEMP:  81;

SEDALIA        CLOUDY    76  71  85 E5        30.11S
6HR MIN TEMP:  71; 6HR MAX TEMP:  76;

WHITEMAN AFB   PTSUNNY   76  76 100 SE5       30.08F
OSAGE BEACH    CLOUDY    77  72  84 CALM      30.11F

$$
MOZ051-052-059>065-261900-
...EAST CENTRAL MISSOURI...

CITY           SKY/WX    TMP DP  RH WIND       PRES   REMARKS
ST LOUIS INTL  CLOUDY    86  72  62 N5        30.09F HX  92
6HR MIN TEMP:  74; 6HR MAX TEMP:  87;

SPIRIT OF STL  CLOUDY    85  73  67 CALM      30.08F HX  91
6HR MIN TEMP:  73; 6HR MAX TEMP:  85;

ST CHARLES     CLOUDY    83  76  79 N6        30.08F HX  91
6HR MIN TEMP:  72; 6HR MAX TEMP:  83;


$$
MOZ072>076-082>087-097>100-106>115-261900-
...SOUTH CENTRAL AND SOUTHEAST MISSOURI...

CITY           SKY/WX    TMP DP  RH WIND       PRES   REMARKS
CAPE GIRARDEAU MOSUNNY   91  73  55 VRB3      30.05F HX  99
6HR MIN TEMP:  73; 6HR MAX TEMP:  92;

FARMINGTON     CLOUDY    85  71  63 SW3       30.11  HX  90
6HR MIN TEMP:  73; 6HR MAX TEMP:  86;

POPLAR BLUFF   CLOUDY    78  73  84 N5        30.08S
6HR MIN TEMP:  74; 6HR MAX TEMP:  91; 6HR PCP:  0.40;

WEST PLAINS    CLOUDY    81  69  67 S6        30.14F
6HR MIN TEMP:  73; 6HR MAX TEMP:  82;


$$



USA.gov is the U.S. government's official web portal to all federal, state and local government web resources and services.